Content
SEND FEEDBACK

Daily
Averages
Monthly
Summary
Italy

PARMA, ITALY


Home > Europe > Italy
Elevation: 187 feet     Latitude: 44 48N     Longitude: 010 18E

WEATHER
 
SELECT A DAY
Number of Records: 73,326;   Date Range: 9/14/00 - 7/30/14
 
SHARE

PRINT THIS DATA

[ ← Previous Day ]
WEATHER ALMANAC - AUGUST 25, 2013
[ Next Day → ]
[ °C ]   °F
Weather ElementAverageHighLow
Temperature70.8 °F78.8 °F (4:50 pm)62.6 °F (6:50 am)
Dewpoint63.2 °F64.4 °F (7:50 am)60.8 °F (6:50 am)
Humidity78 %100 % (7:50 am)61 % (1:50 pm)
Barometer29.75 in29.77 in (6:50 am)29.71 in (4:50 pm)
Wind Speed4 mph18.4 mph (9:50 pm)
Weather ElementAverage
Visibility5.6 mi
Wind DirectionENE (56.8 °)

Weather ElementTotal
Precipitation---
Cooling Degree Days5.7 (Base 65)
Growing Degree Days20.7 (Base 50)
Averaged from 19 records on August 25, 2013
WEATHER CONDITIONS BREAKOUT
WIND DIRECTION BREAKOUT
WEATHER BY HOUR - AUGUST 25, 2013
[ °C ]   °F
Local TimeTemperatureDewpointHumidityBarometerVisibilityWind DirectionWind SpeedGust SpeedPrecipitationEventsConditions
6:50 AM62.6 °F60.8 °F94 %29.77 in6.2 miVariable2.3 mphMostly Cloudy
7:18 AM64.4 °F62.6 °F94 %29.77 in2.5 miVariable3.5 mphMostly Cloudy
7:50 AM64.4 °F64.4 °F100 %29.77 in2.5 miVariable3.5 mphScattered Clouds
8:50 AM66.2 °F64.4 °F94 %29.77 in3.1 miWest (280°)4.6 mphMostly Cloudy
9:50 AM68.0 °F64.4 °F88 %29.77 in6.2 miWest (260°)4.6 mphScattered Clouds
10:50 AM69.8 °F64.4 °F83 %29.77 in6.2 miVariable3.5 mphMostly Cloudy
11:50 AM71.6 °F64.4 °F78 %29.77 in6.2 miVariable3.5 mphScattered Clouds
12:50 PM73.4 °F64.4 °F73 %29.77 inVariable2.3 mphClear
1:50 PM77.0 °F62.6 °F61 %29.74 in6.2 miVariable2.3 mphScattered Clouds
2:50 PM77.0 °F62.6 °F61 %29.74 in6.2 miVariable2.3 mphScattered Clouds
3:50 PM77.0 °F62.6 °F61 %29.74 in6.2 miVariable2.3 mphScattered Clouds
4:50 PM78.8 °F64.4 °F61 %29.71 in6.2 miVariable2.3 mphScattered Clouds
5:50 PM77.0 °F62.6 °F61 %29.71 in6.2 miNNE (30°)4.6 mphScattered Clouds
6:50 PM77.0 °F62.6 °F61 %29.71 in6.2 miEast (90°)4.6 mphPartly Cloudy
7:50 PM75.2 °F64.4 °F69 %29.71 in6.2 miVariable2.3 mphScattered Clouds
8:50 PM73.4 °F64.4 °F73 %29.71 in6.2 miVariable2.3 mphScattered Clouds
9:50 PM64.4 °F60.8 °F88 %29.74 in6.2 miNorth (360°)18.4 mphThunderstormThunderstorm
10:50 PM64.4 °F60.8 °F88 %29.74 in6.2 miENE (60°)5.8 mphScattered Clouds
11:50 PM64.4 °F62.6 °F94 %29.77 in6.2 miVariable1.2 mphPartly Cloudy
Hourly data recorded from LIMP, located miles away from Parma, Italy







STORIES FROM OUR PARTNERS